EW9774 Weather Reports


Display with metric or nautical units.
time (UTC)temp
F
wind
direction
speed
MPH
gust
MPH
rain 1hr
in
rain 24hr
in
rain mn
in
humidity
%
barometer
mb
20260507054529 58 182 4.0 10.0 0.00 0.00 0.00 76 1020.2
20260507053032 58 184 5.0 11.0 0.00 0.00 0.00 76 1020.2
20260507051531 58 182 5.0 11.0 0.00 0.00 0.00 77 1020.3
20260507050041 58 187 3.0 7.0 0.00 0.00 0.00 77 1020.3
20260507044607 58 187 2.0 11.0 0.00 0.00 0.00 76 1020.2
20260507043031 57 191 3.0 8.0 0.00 0.00 0.00 75 1020.1
20260507041528 56 28 0.0 5.0 0.00 0.00 0.00 71 1020.0
20260507040105 58 202 0.0 3.0 0.00 0.00 0.00 66 1019.7
20260507033031 62 188 0.0 6.0 0.00 0.00 0.00 57 1019.5
20260507031529 64 187 3.0 10.0 0.00 0.00 0.00 54 1019.3
20260507030034 65 186 5.0 11.0 0.00 0.00 0.00 52 1019.2
20260507024607 66 188 6.0 15.0 0.00 0.00 0.00 50 1019.1
20260507023035 67 191 8.0 18.0 0.00 0.00 0.00 49 1019.0
20260507021531 68 189 7.0 15.0 0.00 0.00 0.00 47 1019.0
20260507020032 69 185 6.0 16.0 0.00 0.00 0.00 47 1018.9
20260507014611 70 182 6.0 16.0 0.00 0.00 0.00 47 1018.9
20260507013040 70 181 4.0 11.0 0.00 0.00 0.00 47 1018.9
20260507010031 71 197 4.0 17.0 0.00 0.00 0.00 45 1018.8
20260507004608 71 317 2.0 13.0 0.00 0.00 0.00 45 1018.7
20260507003033 71 222 5.0 17.0 0.00 0.00 0.00 45 1018.5
20260507001531 71 192 6.0 21.0 0.00 0.00 0.00 47 1018.5
20260507000028 69 276 4.0 14.0 0.00 0.00 0.00 49 1018.4
20260506234532 69 247 3.0 14.0 0.00 0.00 0.00 50 1018.4
20260506233145 69 226 5.0 20.0 0.00 0.00 0.00 50 1018.4
20260506231531 69 192 7.0 23.0 0.00 0.00 0.00 49 1018.4
20260506230029 70 192 7.0 22.0 0.00 0.00 0.00 48 1018.3
20260506224531 72 232 5.0 20.0 0.00 0.00 0.00 47 1018.4
20260506223033 75 346 2.0 13.0 0.00 0.00 0.00 44 1018.4
20260506221530 75 338 3.0 15.0 0.00 0.00 0.00 44 1018.4
20260506220036 75 323 4.0 18.0 0.00 0.00 0.00 43 1018.5
20260506211530 76 348 3.0 10.0 0.00 0.00 0.00 44 1018.5
20260506204534 76 339 3.0 15.0 0.00 0.00 0.00 44 1018.5
20260506203109 75 352 3.0 13.0 0.00 0.00 0.00 46 1018.6
20260506201540 74 227 4.0 19.0 0.00 0.00 0.00 48 1018.8
20260506200029 74 281 4.0 15.0 0.00 0.00 0.00 48 1018.7
20260506194534 73 237 4.0 19.0 0.00 0.00 0.00 50 1018.7
20260506191532 72 349 3.0 13.0 0.00 0.00 0.00 52 1019.1
20260506190032 72 341 4.0 16.0 0.00 0.00 0.00 54 1019.1
20260506184531 70 351 4.0 15.0 0.00 0.00 0.00 56 1019.1
20260506183029 72 346 4.0 11.0 0.00 0.00 0.00 53 1019.1
20260506181530 71 275 3.0 13.0 0.00 0.00 0.00 55 1019.0
20260506180147 70 345 3.0 14.0 0.00 0.00 0.00 57 1019.1
20260506174528 69 351 4.0 11.0 0.00 0.00 0.00 58 1019.2
20260506173030 69 345 2.0 9.0 0.00 0.00 0.00 59 1019.2
20260506171528 69 341 2.0 8.0 0.00 0.00 0.00 59 1019.1
20260506170109 70 318 2.0 8.0 0.00 0.00 0.00 59 1019.1
20260506164529 69 186 5.0 13.0 0.00 0.00 0.00 59 1019.1
20260506160030 66 193 3.0 14.0 0.00 0.00 0.00 67 1019.4
20260506154607 65 184 4.0 12.0 0.00 0.00 0.00 69 1019.3
20260506153147 64 203 5.0 15.0 0.00 0.00 0.00 73 1019.3
20260506151608 63 188 2.0 7.0 0.00 0.00 0.00 80 1019.3
20260506150144 61 183 2.0 7.0 0.00 0.00 0.00 89 1019.4
20260506144529 58 180 2.0 6.0 0.00 0.00 0.00 94 1019.5
20260506143030 56 181 4.0 7.0 0.00 0.00 0.00 96 1019.5
20260506141531 54 180 3.0 5.0 0.00 0.00 0.00 97 1019.5
20260506134540 51 182 1.0 3.0 0.00 0.00 0.00 97 1019.3
20260506131532 49 191 1.0 4.0 0.00 0.00 0.00 97 1019.1
20260506130031 48 187 2.0 5.0 0.00 0.00 0.00 96 1019.0
20260506124533 48 230 2.0 6.0 0.00 0.00 0.00 96 1018.9
20260506123040 48 197 1.0 4.0 0.00 0.00 0.00 96 1018.7
20260506121531 48 227 1.0 4.0 0.00 0.00 0.00 96 1018.6
20260506120030 48 189 2.0 4.0 0.00 0.00 0.00 96 1018.5
20260506114529 48 189 3.0 5.0 0.00 0.00 0.00 96 1018.3
20260506113029 47 148 2.0 3.0 0.00 0.00 0.00 95 1018.2
20260506110153 48 190 2.0 4.0 0.00 0.00 0.00 95 1017.9
20260506104532 48 216 2.0 6.0 0.00 0.00 0.00 95 1017.7
20260506103031 48 196 1.0 3.0 0.00 0.00 0.00 95 1017.6
20260506094532 49 197 1.0 5.0 0.00 0.00 0.00 94 1017.6
20260506093029 49 186 2.0 5.0 0.00 0.00 0.00 94 1017.4
20260506091531 49 180 1.0 4.0 0.00 0.00 0.00 94 1017.5
20260506090029 49 191 2.0 5.0 0.00 0.00 0.00 93 1017.4
20260506084531 49 183 1.0 3.0 0.00 0.00 0.00 92 1017.3
20260506083028 50 188 2.0 4.0 0.00 0.00 0.00 92 1017.1
20260506081531 51 235 1.0 3.0 0.00 0.00 0.00 93 1017.1
20260506073031 50 197 2.0 3.0 0.00 0.00 0.00 90 1016.7
20260506061532 53 186 1.0 4.0 0.00 0.00 0.00 86 1016.3